TimeEST,TemperatureF,Dew PointF,Humidity,Sea Level PressureIn,VisibilityMPH,Wind Direction,Wind SpeedMPH,Gust SpeedMPH,PrecipitationIn,Events,Conditions,WindDirDegrees,DateUTC
12:53 AM,66.9,57.9,73,30.15,10.0,North,13.8,25.3,N/A,,Overcast,350,2013-01-18 05:53:00
1:53 AM,66.9,57.9,73,30.15,10.0,NNW,12.7,-,N/A,,Overcast,340,2013-01-18 06:53:00
2:53 AM,66.9,57.9,73,30.14,10.0,North,12.7,24.2,N/A,,Overcast,350,2013-01-18 07:53:00
3:39 AM,66.2,57.2,73,30.15,10.0,NNW,13.8,21.9,N/A,,Overcast,330,2013-01-18 08:39:00
3:53 AM,66.0,57.0,73,30.15,10.0,NNW,13.8,19.6,N/A,,Overcast,340,2013-01-18 08:53:00
4:04 AM,66.2,57.2,73,30.15,10.0,NNW,13.8,23.0,N/A,,Overcast,340,2013-01-18 09:04:00
4:48 AM,64.4,57.2,77,30.15,10.0,NNW,12.7,-,N/A,,Overcast,340,2013-01-18 09:48:00
4:53 AM,66.0,57.0,73,30.15,10.0,NNW,12.7,-,N/A,,Overcast,340,2013-01-18 09:53:00
5:50 AM,66.2,57.2,73,30.16,10.0,NNW,11.5,21.9,N/A,,Overcast,340,2013-01-18 10:50:00
5:53 AM,66.0,55.9,70,30.16,10.0,North,13.8,21.9,N/A,,Overcast,350,2013-01-18 10:53:00
6:11 AM,66.2,55.4,68,30.17,10.0,NNW,12.7,-,N/A,,Overcast,340,2013-01-18 11:11:00
6:38 AM,66.2,55.4,68,30.17,10.0,NNW,13.8,-,N/A,,Overcast,340,2013-01-18 11:38:00
6:46 AM,66.2,55.4,68,30.17,10.0,North,11.5,-,N/A,,Overcast,350,2013-01-18 11:46:00
6:53 AM,66.0,55.0,68,30.17,10.0,North,11.5,-,N/A,,Overcast,350,2013-01-18 11:53:00
7:53 AM,66.0,55.0,68,30.19,10.0,North,11.5,-,N/A,,Overcast,350,2013-01-18 12:53:00
8:53 AM,66.0,55.0,68,30.22,10.0,North,11.5,17.3,N/A,,Overcast,360,2013-01-18 13:53:00
9:53 AM,66.0,54.0,65,30.24,10.0,North,8.1,-,N/A,,Overcast,350,2013-01-18 14:53:00
10:53 AM,66.0,54.0,65,30.24,10.0,North,12.7,-,N/A,,Overcast,360,2013-01-18 15:53:00
11:53 AM,66.9,55.0,66,30.22,10.0,North,10.4,-,N/A,,Overcast,10,2013-01-18 16:53:00
12:53 PM,64.9,55.9,73,30.20,10.0,NNE,12.7,-,N/A,,Overcast,20,2013-01-18 17:53:00
1:04 PM,64.4,55.4,73,30.19,10.0,NNE,11.5,-,N/A,,Overcast,30,2013-01-18 18:04:00
1:15 PM,64.4,55.4,73,30.19,10.0,NNE,15.0,-,N/A,,Overcast,20,2013-01-18 18:15:00
1:37 PM,64.4,57.2,77,30.18,10.0,NNE,12.7,-,N/A,,Overcast,30,2013-01-18 18:37:00
1:53 PM,64.9,57.0,75,30.18,10.0,North,8.1,-,N/A,,Overcast,360,2013-01-18 18:53:00
2:10 PM,64.4,55.4,73,30.17,10.0,NNE,8.1,-,N/A,,Overcast,30,2013-01-18 19:10:00
2:21 PM,64.4,55.4,73,30.17,10.0,North,11.5,-,N/A,,Overcast,10,2013-01-18 19:21:00
2:53 PM,64.0,55.9,75,30.17,10.0,North,12.7,-,0.00,Rain,Light Rain,360,2013-01-18 19:53:00
3:53 PM,63.0,55.0,75,30.18,10.0,North,13.8,18.4,0.00,,Overcast,10,2013-01-18 20:53:00
4:53 PM,63.0,54.0,72,30.18,10.0,North,11.5,-,N/A,,Mostly Cloudy,360,2013-01-18 21:53:00
5:06 PM,62.6,53.6,72,30.19,10.0,North,11.5,-,N/A,,Scattered Clouds,10,2013-01-18 22:06:00
5:53 PM,61.0,54.0,78,30.20,10.0,North,10.4,17.3,N/A,,Mostly Cloudy,10,2013-01-18 22:53:00
6:49 PM,60.8,51.8,72,30.20,10.0,NNE,6.9,-,N/A,,Partly Cloudy,20,2013-01-18 23:49:00
6:53 PM,61.0,52.0,72,30.21,10.0,NNE,4.6,-,N/A,,Partly Cloudy,20,2013-01-18 23:53:00
7:53 PM,61.0,52.0,72,30.22,10.0,NNE,3.5,-,N/A,,Clear,30,2013-01-19 00:53:00
8:53 PM,60.1,53.1,78,30.22,10.0,Calm,Calm,-,N/A,,Partly Cloudy,0,2013-01-19 01:53:00
9:53 PM,62.1,53.1,72,30.22,10.0,East,3.5,-,N/A,,Overcast,80,2013-01-19 02:53:00
10:53 PM,63.0,52.0,67,30.21,10.0,East,4.6,-,N/A,,Overcast,80,2013-01-19 03:53:00
11:34 PM,62.6,53.6,72,30.20,10.0,NNE,4.6,-,N/A,,Overcast,30,2013-01-19 04:34:00
11:53 PM,62.1,53.1,72,30.20,10.0,NNE,3.5,-,N/A,,Partly Cloudy,30,2013-01-19 04:53:00